CAPE
0 0 0 0 0 0 0 0 0 0 0 0 0 0 0 0 0 0 8 210 419 578 374 425 410 212 445 502 461 329 237 141 109 1 4 3 1 1 0 0 0 0 3
0 0 0 0 0 0 0 0 0 0 0 0 0 0 0 0 0 51 76 75 186 104 3 1 0 0 0 0 0 4 4 16 2 0 6 4 1 0 0 0 0 0 0
0 0 0 0 0 0 0 0 0 0 0 0 0 0 0 2 4 5 1 0 0 0 0 0 0 0 0 1 1 0 1 2 2 0 7 2 1 0 0 0 0 0 0
0 0 0 0 0 0 0 0 0 0 0 0 0 0 6 0 0 0 0 1 1 1 1 0 0 0 0 1 2 2 2 2 4 7 7 3 2 0 0 0 0 0 0
0 0 0 0 0 0 0 0 0 0 0 0 0 0 2 0 1 0 2 3 3 3 2 1 1 3 3 2 2 3 4 5 4 3 1 3 2 0 0 0 0 0 0
0 0 0 0 0 0 0 0 0 0 0 0 0 0 0 0 2 3 3 2 2 2 2 1 1 2 2 1 1 0 0 0 0 0 0 0 0 0 0 0 0 0 0
0 0 0 0 0 0 0 0 0 0 0 0 0 0 3 2 3 3 1 2 3 4 2 1 0 0 0 0 0 0 0 0 0 0 0 0 0 0 0 0 0 0 0
0 0 0 1 1 5 0 0 0 0 1 0 0 0 1 2 2 1 2 3 2 0 0 0 0 0 0 0 0 0 0 0 0 0 0 0 0 0 0 0 0 0 0
3 2 0 8 4 0 0 0 0 0 0 0 1 2 3 2 2 3 0 0 0 0 0 0 0 0 0 0 0 0 0 0 0 0 0 0 0 0 0 0 0 0 0
0 0 0 0 0 0 0 0 0 0 1 2 3 3 3 3 1 2 0 0 0 0 0 0 0 0 0 0 0 0 0 0 0 0 0 0 0 0 0 0 0 0 0
1 2 5 3 0 0 0 0 1 2 3 3 4 2 2 1 0 0 0 0 0 0 0 0 0 0 0 0 0 0 0 0 0 0 0 0 0 0 0 0 0 0 0
2 2 5 0 0 0 0 1 2 3 3 4 4 3 1 0 0 0 0 0 0 0 0 0 0 0 0 0 0 0 0 0 0 0 0 0 0 0 0 0 0 0 0
1 1 0 0 0 0 1 1 3 3 5 4 5 3 1 0 0 0 0 0 0 0 0 0 0 0 0 0 0 0 0 0 0 0 0 0 0 0 0 0 0 0 0
1 1 0 0 1 1 2 3 4 4 3 3 3 1 0 0 0 0 0 0 0 0 0 0 0 0 0 0 0 0 0 0 0 0 0 0 0 0 0 0 0 0 0
1 1 1 2 2 1 1 1 1 0 1 2 1 0 0 0 0 0 0 0 0 0 0 0 0 0 0 0 0 0 0 0 0 0 0 0 0 0 0 0 0 0 0
3 3 3 4 4 3 2 2 0 0 0 0 0 0 0 0 0 0 0 0 0 0 0 0 0 0 0 0 0 0 0 0 0 0 0 0 0 0 0 0 0 0 0
3 3 3 4 4 3 3 3 2 1 0 0 0 0 0 0 0 0 0 0 0 0 0 0 0 0 0 0 0 0 0 0 0 0 0 0 0 0 0 0 0 2 1
2 3 2 3 2 3 3 2 1 0 0 0 0 0 0 0 0 0 0 0 0 0 0 0 0 0 0 0 0 0 0 0 0 0 0 0 0 0 0 0 0 2 0
2 2 1 1 0 0 0 0 0 0 0 0 0 0 0 0 0 0 0 0 0 0 0 0 0 0 0 0 0 0 0 0 0 0 0 0 0 0 0 0 0 0 0
0 0 0 0 0 0 0 0 0 0 0 0 0 0 0 0 0 0 0 0 0 0 0 0 0 0 0 0 0 0 0 0 0 0 0 0 0 0 0 0 0 0 2
0 0 0 0 0 0 0 0 0 0 0 0 0 0 0 0 0 0 0 0 0 0 0 0 0 0 0 0 0 0 0 0 0 0 0 0 0 0 0 0 0 0 1
0 0 0 0 0 0 0 0 0 0 0 0 0 0 0 0 0 0 0 0 0 0 0 0 0 0 0 0 0 0 0 0 0 0 0 0 0 0 0 0 0 0 1
0 0 0 0 0 0 0 0 0 0 0 0 0 0 0 0 0 0 0 0 0 0 0 0 0 0 0 0 0 0 0 0 0 0 0 0 0 0 0 0 0 0 1
0 0 0 0 0 0 0 0 0 0 0 0 0 0 0 0 0 0 0 0 0 0 0 0 0 0 0 0 0 0 0 0 0 0 0 0 0 0 0 0 0 0 1
0 0 0 0 0 0 0 0 0 0 0 0 0 0 0 0 0 0 0 0 0 0 0 0 0 0 0 0 0 0 0 0 0 0 0 0 0 0 0 0 0 0 0
0 0 0 0 0 0 0 0 0 0 0 0 0 0 0 0 0 0 0 0 0 0 0 0 0 0 0 0 0 0 0 0 0 0 0 0 0 0 0 0 0 0 0
CIN
-0 -0 -0 -0 -0 -0 -0 -0 -0 -0 -0 -0 -0 -0 -0 -0 -0 -0 -223 -60 -69 -75 -114 -119 -125 -166 -77 -53 -37 -43 -31 -27 -3 -0 -0 -0 -0 -0 -0 -0 -0 -0 -1
-0 -0 -0 -0 -0 -0 -0 -0 -0 -0 -0 -0 -0 -0 -0 -3 -0 -141 -132 -187 -125 -186 -33 -17 -0 -0 -0 -0 -10 -8 -5 -100 -3 -0 -0 -0 -0 -0 -0 -0 -0 -0 -0
-0 -0 -0 -0 -0 -0 -0 -0 -0 -0 -0 -0 -0 -0 -0 -14 -166 -161 -0 -0 -0 -0 -0 -0 -0 -0 -0 -0 -0 -0 -0 -0 -0 -0 -0 -0 -0 -0 -0 -0 -0 -0 -0
-0 -0 -0 -0 -0 -0 -0 -0 -0 -0 -0 -0 -0 -0 -57 -0 -0 -0 -0 -0 -0 -0 -0 -0 -0 -0 -0 -0 -0 -0 -0 -0 -0 -0 -0 -0 -0 -0 -0 -0 -0 -0 -0
-0 -0 -0 -4 -2 -0 -0 -0 -0 -0 -0 -0 -0 -0 -3 -0 -0 -0 -0 -0 -0 -0 -0 -0 -0 -0 -0 -0 -0 -0 -0 -0 -0 -0 -0 -0 -0 -0 -0 -0 -0 -0 -0
-0 -0 -0 -0 -2 -0 -0 -0 -0 -0 -0 -0 -0 -0 -0 -0 -0 -0 -0 -0 -0 -0 -0 -0 -0 -0 -0 -0 -0 -0 -0 -0 -0 -0 -0 -0 -0 -0 -0 -0 -0 -0 -0
-1 -2 -0 -2 -0 -0 -2 -0 -0 -0 -0 -0 -0 -0 -0 -0 -0 -0 -0 -0 -0 -0 -0 -0 -0 -0 -0 -0 -0 -0 -0 -0 -0 -0 -0 -0 -0 -0 -0 -0 -0 -0 -0
-0 -0 -0 -1 -2 -2 -2 -0 -0 -0 -0 -0 -0 -0 -0 -0 -0 -0 -0 -0 -0 -0 -0 -0 -0 -0 -0 -0 -0 -0 -0 -0 -0 -0 -0 -0 -0 -0 -0 -0 -0 -0 -0
-0 -0 -0 -0 -3 -1 -0 -0 -0 -0 -0 -0 -0 -0 -0 -0 -0 -0 -0 -0 -0 -0 -0 -0 -0 -0 -0 -0 -0 -0 -0 -0 -0 -0 -0 -0 -0 -0 -0 -0 -0 -0 -0
-0 -0 -0 -0 -0 -6 -2 -0 -0 -0 -0 -0 -0 -0 -0 -0 -0 -0 -0 -0 -0 -0 -0 -0 -0 -0 -0 -0 -0 -0 -0 -0 -0 -0 -0 -0 -0 -0 -0 -0 -0 -0 -0
-0 -0 -0 -0 -0 -0 -0 -0 -0 -0 -0 -0 -0 -0 -0 -0 -0 -0 -0 -0 -0 -0 -0 -0 -0 -0 -0 -0 -0 -0 -0 -0 -0 -0 -0 -0 -0 -0 -0 -0 -0 -0 -0
-0 -0 -1 -1 -0 -0 -0 -0 -0 -0 -0 -0 -0 -0 -0 -0 -0 -0 -0 -0 -0 -0 -0 -0 -0 -0 -0 -0 -0 -0 -0 -0 -0 -0 -0 -0 -0 -0 -0 -0 -0 -0 -0
-0 -0 -0 -0 -0 -0 -0 -0 -0 -0 -0 -0 -0 -0 -0 -0 -0 -0 -0 -0 -0 -0 -0 -0 -0 -0 -0 -0 -0 -0 -0 -0 -0 -0 -0 -0 -0 -0 -0 -0 -0 -0 -0
-0 -0 -0 -0 -0 -0 -0 -0 -0 -0 -0 -0 -0 -0 -0 -0 -0 -0 -0 -0 -0 -0 -0 -0 -0 -0 -0 -0 -0 -0 -0 -0 -0 -0 -0 -0 -0 -0 -0 -3 -32 -26 -0
-0 -0 -0 -0 -0 -0 -0 -0 -0 -0 -0 -0 -0 -0 -0 -0 -0 -0 -0 -0 -0 -0 -0 -0 -0 -0 -0 -0 -0 -0 -0 -0 -0 -0 -0 -0 -0 -0 -0 -17 -0 -0 -0
-0 -0 -0 -0 -0 -0 -0 -0 -0 -0 -0 -0 -0 -0 -0 -0 -0 -0 -0 -0 -0 -0 -0 -0 -0 -0 -0 -0 -0 -0 -0 -0 -0 -0 -0 -0 -0 -0 -0 -27 -23 -0 -0
-0 -0 -0 -0 -0 -0 -0 -0 -0 -0 -0 -0 -0 -0 -0 -0 -0 -0 -0 -0 -0 -0 -0 -0 -0 -0 -0 -0 -0 -0 -0 -0 -0 -0 -0 -0 -0 -0 -0 -0 -16 -0 -0
-0 -0 -0 -0 -0 -0 -0 -0 -0 -0 -0 -0 -0 -0 -0 -0 -0 -0 -0 -0 -0 -0 -0 -0 -0 -0 -0 -0 -0 -0 -0 -0 -0 -0 -0 -0 -0 -0 -0 -0 -1 -0 -0
-0 -0 -0 -0 -0 -0 -0 -0 -0 -0 -0 -0 -0 -0 -0 -0 -0 -0 -0 -0 -0 -0 -0 -0 -0 -0 -0 -0 -0 -0 -0 -0 -0 -0 -0 -0 -0 -0 -0 -0 -4 -0 -0
-0 -0 -0 -0 -0 -0 -0 -0 -0 -0 -0 -0 -0 -0 -0 -0 -0 -0 -0 -0 -0 -0 -0 -0 -0 -0 -0 -0 -0 -0 -0 -0 -0 -0 -0 -0 -0 -0 -0 -0 -0 -0 -0
-0 -0 -0 -0 -0 -0 -0 -0 -0 -0 -0 -0 -0 -0 -0 -0 -0 -0 -0 -0 -0 -0 -0 -0 -0 -0 -0 -0 -0 -0 -0 -0 -0 -0 -0 -0 -0 -0 -0 -0 -0 -0 -0
-0 -0 -0 -0 -0 -0 -0 -0 -0 -0 -0 -0 -0 -0 -0 -0 -0 -0 -0 -0 -0 -0 -0 -0 -0 -0 -0 -0 -0 -0 -0 -0 -0 -0 -0 -0 -0 -0 -0 -0 -0 -0 -0
-0 -0 -0 -0 -0 -0 -0 -0 -0 -0 -0 -0 -0 -0 -0 -0 -0 -0 -0 -0 -0 -0 -0 -0 -0 -0 -0 -0 -0 -0 -0 -0 -0 -0 -0 -0 -0 -0 -0 -0 -0 -0 -0
-0 -0 -0 -0 -0 -0 -0 -0 -0 -0 -0 -0 -0 -0 -0 -0 -0 -0 -0 -0 -0 -0 -0 -0 -0 -0 -0 -0 -0 -0 -0 -0 -0 -0 -0 -0 -0 -0 -0 -0 -0 -0 -0
-0 -0 -0 -0 -0 -0 -0 -0 -0 -0 -0 -0 -0 -0 -0 -0 -0 -0 -0 -0 -0 -0 -0 -0 -0 -0 -0 -0 -0 -0 -0 -0 -0 -0 -0 -0 -0 -0 -0 -0 -0 -0 -0
-0 -0 -0 -0 -0 -0 -0 -0 -0 -0 -0 -0 -0 -0 -0 -0 -0 -0 -0 -0 -0 -0 -0 -0 -0 -0 -0 -0 -0 -0 -0 -0 -0 -0 -0 -0 -0 -0 -0 -0 -0 -0 -0
Wind_Speed
40 41 42 42 42 43 44 44 45 44 44 44 41 40 39 38 35 36 37 36 31 29 27 28 31 31 29 25 21 19 21 26 34 30 20 14 16 15 14 11 13 17 16
44 44 45 44 45 45 44 43 41 40 40 41 38 38 36 34 34 33 34 30 26 24 24 24 26 26 27 27 26 25 25 25 25 25 20 22 16 16 14 11 11 14 14
44 46 46 43 44 45 41 39 37 36 37 38 36 36 31 30 29 28 26 23 21 20 20 21 22 23 24 24 25 25 25 25 24 20 19 18 16 13 12 14 15 16 16
42 44 41 43 43 41 39 37 34 33 36 34 33 30 27 27 26 23 19 16 15 16 17 17 19 20 22 23 23 23 20 19 17 16 13 13 14 14 13 12 13 15 17
41 39 39 41 39 39 38 35 34 31 33 32 31 26 24 24 22 17 14 11 11 12 14 15 17 19 20 21 21 21 19 16 13 13 13 11 9 14 10 12 14 13 17
38 35 39 43 40 38 32 33 30 32 31 31 25 19 21 21 15 10 8 8 7 9 11 14 16 17 19 21 22 20 19 15 11 8 8 8 10 9 13 12 10 12 17
38 43 44 43 39 33 28 28 30 31 29 21 17 17 17 14 8 5 5 5 6 8 10 12 14 16 18 20 21 21 21 19 16 10 6 7 8 9 9 11 12 13 16
48 50 46 39 32 26 27 28 27 23 21 14 14 14 13 10 6 5 5 5 6 8 10 11 14 17 19 21 21 20 20 19 16 14 12 9 8 11 12 12 12 15 18
37 40 37 28 24 26 26 25 22 18 11 10 12 11 9 7 5 6 5 6 7 9 9 11 14 17 19 22 22 26 23 19 16 13 13 15 14 12 14 20 16 16 19
33 31 33 30 26 22 16 17 17 7 7 9 10 9 7 4 3 2 4 6 8 8 10 14 16 18 20 23 22 24 24 19 13 10 4 11 12 17 19 20 21 20 19
14 24 26 22 20 18 13 15 4 5 6 7 7 6 4 1 1 1 4 7 8 10 12 13 14 18 21 22 25 19 14 26 30 30 18 15 17 21 24 26 26 24 24
9 7 17 19 17 17 16 2 4 4 4 6 5 3 0 2 4 7 8 9 9 11 12 13 16 18 19 17 22 19 11 14 11 19 19 20 23 24 25 25 25 25 26
20 23 23 23 23 23 4 7 1 4 8 6 5 3 4 4 9 13 13 13 14 14 15 17 18 19 19 17 18 2 26 25 22 22 24 25 25 24 24 24 23 25 27
22 23 24 25 25 18 10 6 3 12 18 12 7 6 10 10 9 10 12 12 14 16 17 18 16 17 12 17 7 1 10 20 22 25 26 26 26 26 26 26 27 25 28
21 14 7 10 10 12 15 15 16 17 17 13 6 9 13 15 12 14 16 16 16 16 16 15 17 11 9 1 4 10 13 18 22 25 27 27 28 28 28 27 28 28 28
9 11 20 21 21 15 11 13 11 10 8 7 11 17 11 19 20 20 17 19 16 13 12 13 11 7 4 2 15 19 20 23 24 25 27 28 28 28 28 28 29 28 27
26 26 24 23 19 16 14 13 14 12 15 17 17 15 19 22 23 20 18 16 14 13 8 9 13 18 13 17 20 23 25 26 27 27 28 29 29 28 29 28 28 27 27
21 22 24 22 22 19 23 21 19 20 25 14 10 16 22 22 25 26 19 11 9 12 24 29 16 16 18 22 25 26 27 28 28 28 29 29 29 28 28 28 28 28 28
23 22 20 20 20 22 22 19 14 15 16 16 19 14 24 20 17 12 12 20 25 13 13 18 19 23 25 26 28 28 29 29 29 29 29 29 29 28 28 28 28 28 28
18 18 19 19 17 15 16 16 16 14 14 18 29 38 19 16 18 17 14 18 9 15 19 23 25 27 29 29 30 29 30 31 30 30 30 30 29 29 29 29 27 26 27
27 25 14 12 13 12 14 19 21 21 20 18 18 17 17 15 13 14 14 14 25 26 27 28 29 30 29 29 30 31 32 32 32 31 31 31 31 30 29 28 27 26 26
20 20 23 22 25 26 24 22 22 24 24 25 25 17 12 10 22 34 31 28 27 28 29 28 28 29 30 31 32 32 33 33 33 33 33 33 32 31 30 29 27 25 26
27 26 24 25 25 24 25 26 27 27 26 27 30 18 25 34 34 31 30 28 28 27 28 29 30 31 32 32 31 32 34 34 33 34 34 34 34 32 31 29 26 24 24
26 27 24 22 21 27 29 29 31 31 33 29 26 31 32 31 30 30 30 29 29 30 30 30 31 32 32 32 32 32 33 33 34 35 35 35 35 34 33 31 28 23 21
33 34 36 36 37 37 35 32 33 39 38 35 32 32 32 31 30 30 29 29 29 30 30 31 30 31 32 33 33 33 33 34 34 36 36 37 37 36 34 32 30 23 19
35 34 34 34 35 36 39 40 39 36 34 33 33 31 31 30 29 29 29 29 29 29 29 30 30 31 31 32 32 33 33 33 33 35 36 37 38 37 35 33 30 23 18
Wind_Direction
313 313 315 317 319 319 318 315 310 306 302 301 300 299 298 298 302 303 299 298 298 298 300 300 300 304 305 308 307 301 294 289 284 289 293 289 287 277 278 306 311 310 322
310 310 312 314 316 317 317 314 311 308 304 301 298 299 299 300 303 305 300 299 298 301 304 306 309 312 313 312 310 307 305 298 288 282 287 284 287 281 280 306 316 319 327
309 309 311 314 316 317 316 314 311 308 306 302 299 298 302 306 308 309 307 303 301 306 311 314 315 319 320 321 318 315 314 307 292 287 280 280 283 284 291 300 308 317 327
310 311 311 314 316 316 315 313 311 310 305 305 304 302 305 307 312 313 312 311 310 315 323 327 329 331 330 330 328 327 327 321 314 300 291 281 273 291 289 306 311 316 321
310 310 311 313 315 313 311 311 309 308 306 305 304 304 308 310 313 318 316 319 324 330 339 346 349 348 346 343 340 340 340 338 332 301 290 289 293 286 302 311 319 320 319
307 308 311 309 307 307 311 310 310 305 305 304 305 311 312 315 323 324 330 329 339 349 354 359 2 4 4 7 11 10 12 6 358 344 308 309 305 313 302 324 346 334 321
306 305 305 302 299 304 308 307 308 301 301 311 320 322 323 330 348 355 5 354 5 9 13 12 9 7 14 15 16 21 22 26 33 29 2 335 332 328 347 345 356 350 335
302 298 294 292 297 300 299 301 307 310 311 323 328 325 327 340 25 47 43 26 31 26 25 21 26 24 24 30 31 29 30 37 38 40 42 26 1 349 345 354 8 17 11
305 300 296 296 292 293 297 300 303 310 327 338 334 327 338 348 21 61 57 53 42 33 24 21 33 41 41 44 41 48 47 44 42 39 39 35 19 357 123 73 54 21 13
302 302 291 283 284 293 301 302 306 338 352 339 342 343 355 9 332 4 46 49 52 45 38 44 40 42 49 50 51 58 57 46 39 36 40 141 10 14 12 13 34 34 24
321 313 293 284 283 287 297 297 13 37 10 7 6 354 10 321 357 325 27 48 55 57 48 41 36 46 52 52 61 50 38 124 111 107 87 17 12 17 18 28 36 36 28
331 349 295 275 262 253 260 36 55 46 28 41 58 56 238 35 58 51 47 46 51 51 42 35 40 50 53 47 57 48 52 44 32 38 22 18 33 35 38 39 42 46 39
202 202 205 205 205 205 163 89 55 55 76 186 177 116 81 67 61 59 60 57 51 45 43 48 53 54 52 46 51 28 87 67 48 30 35 40 48 50 51 50 50 43 37
188 181 178 177 179 185 194 201 171 186 180 176 94 110 69 66 60 55 55 49 46 46 51 55 49 50 46 45 25 197 14 44 39 36 41 44 47 42 40 40 36 38 34
169 171 105 96 139 154 161 172 171 170 174 171 100 71 74 69 61 65 63 59 57 59 57 54 57 47 36 64 12 12 12 23 30 31 36 39 38 38 36 38 36 35 34
117 137 154 152 153 153 131 132 123 125 120 108 70 76 75 72 73 70 64 61 59 63 63 59 52 46 53 138 28 26 22 27 37 45 39 39 37 35 36 37 35 36 36
141 145 150 152 152 145 139 129 100 90 84 80 77 74 73 76 70 64 61 63 63 66 86 137 146 142 31 28 29 32 35 37 43 43 40 36 35 35 34 36 37 39 35
141 141 146 149 150 146 149 146 143 98 87 84 80 72 71 70 69 71 68 84 100 131 133 123 93 35 31 34 37 39 41 41 40 39 35 34 35 36 36 35 35 32 29
143 142 143 143 146 146 148 145 118 101 90 81 77 82 71 70 71 83 124 136 133 120 48 42 38 39 39 41 44 44 42 40 38 36 36 37 37 36 34 33 30 26 28
139 141 144 143 141 101 93 95 90 93 99 140 143 104 149 143 140 138 137 138 62 45 42 44 44 46 46 48 48 44 39 35 38 40 38 36 35 32 28 24 21 23 29
142 144 128 112 110 116 131 144 145 145 146 147 146 147 145 140 137 140 140 47 55 55 52 51 51 49 45 43 42 43 45 43 41 40 37 34 32 28 28 26 24 22 27
145 148 146 145 146 143 143 144 145 146 145 144 144 142 82 79 64 81 72 62 57 58 57 51 46 45 47 50 52 50 46 43 42 40 36 31 28 26 24 19 18 14 17
139 142 142 142 143 144 145 144 143 143 144 143 140 90 69 84 87 76 69 63 58 54 52 54 55 54 54 54 54 50 46 45 44 37 32 29 29 27 25 19 16 11 11
141 142 144 145 148 146 143 142 140 140 137 141 74 80 82 78 73 69 68 65 62 59 58 58 57 56 55 53 52 52 49 46 41 35 34 33 32 31 32 32 21 7 1
138 137 136 136 136 137 138 140 138 122 104 89 83 82 82 78 74 71 69 65 62 59 58 60 59 56 51 47 47 48 45 41 40 38 39 36 34 33 34 32 25 8 358
137 138 137 137 136 134 125 114 106 95 88 89 88 84 82 79 76 73 70 66 64 62 60 57 54 50 45 46 47 44 41 43 43 39 38 36 32 30 30 31 24 6 355